Location: Fisheating Creek Campgrounds
(26.9333°N, 81.3167°W)
Time: 04:47:19
(UTC-04:00)

Daily predictions for brighter satellites

Satellite Brightness Start Highest point End
(mag) Time Altitude Azimuth Time Altitude Azimuth Time Altitude Azimuth
CZ-4C R/B 3.5 04:17:36 52° E 04:17:36 52° E 04:24:29 10° SE
Cosmos 2227 Rocket 4.1 04:21:35 25° NE 04:21:35 25° NE 04:24:00 10° NNE
Lacrosse 5 4.3 04:29:39 17° NNE 04:29:39 17° NNE 04:30:49 10° NE
Cosmos 2297 Rocket 3.7 04:29:49 33° ENE 04:29:49 33° ENE 04:33:25 10° NE
Cosmos 2219 Rocket 3.8 04:28:57 10° N 04:33:59 32° ENE 04:38:59 10° SE
NOSS 3-4 (A) 4.5 04:43:36 39° N 04:43:36 39° N 04:47:33 10° NNE
NOSS 3-4 (C) 4.4 04:43:40 39° N 04:43:40 39° N 04:47:39 10° NNE
Okean O Rocket 4.5 04:38:19 10° NNE 04:38:32 11° NNE 04:38:32 11° NNE
Cosmos 1607 4.3 05:00:02 52° SSE 05:00:02 52° SSE 05:04:38 10° SSE
OAO 2 Rocket 4.3 05:00:56 43° ESE 05:00:56 43° ESE 05:05:12 10° ENE
GOES 2 Rocket 3.7 05:09:05 83° NW 05:09:15 84° N 05:16:48 10° E
Meteor 1-19 Rocket 4.1 05:10:46 82° N 05:10:46 82° N 05:16:10 10° N
Cosmos 2333 Rocket 2.9 05:05:08 10° N 05:10:41 53° ENE 05:16:11 10° SE
Cosmos 1727 Rocket 4.0 05:18:50 58° NW 05:18:50 58° NW 05:24:24 10° N
PSLV R/B 3.9 05:19:34 10° NNE 05:23:51 63° E 05:24:33 54° SSE
Meteor 2-4 Rocket 3.6 05:26:47 30° S 05:29:47 84° W 05:35:41 10° N
Meteor 1-23 Rocket 4.1 05:27:35 22° S 05:31:16 90° E 05:36:56 10° N
DELTA 2 R/B (1) 4.1 05:30:56 42° NW 05:31:28 43° NNW 05:36:46 10° NE
Cosmos 923 Rocket 3.9 05:26:37 10° NNW 05:31:58 88° WSW 05:37:18 10° SSE
CZ-4B R/B 3.4 05:29:18 10° N 05:34:21 49° WNW 05:34:21 49° WNW
Cosmos 2237 Rocket 2.2 05:32:27 10° NNW 05:38:06 78° ENE 05:43:42 10° SSE
Cosmos 1666 3.6 05:34:56 10° N 05:38:40 49° E 05:42:22 10° SSE
NOSS 3-2 (A) 4.1 05:31:07 10° NNW 05:38:56 81° ENE 05:47:07 10° SSE
Hubble Space Telescope 0.6 05:41:26 71° SSW 05:41:32 72° SSW 05:45:39 10° ESE
USA 238 DEB 4.1 05:43:17 37° WSW 05:43:45 37° WSW 05:50:05 10° S
USA 238 4.1 05:43:13 37° W 05:43:51 38° WSW 05:50:12 10° S
Okean-O 2.5 05:39:34 10° NNE 05:44:02 90° SSW 05:47:23 17° SSW
RESURS DK-1 4.3 05:46:25 17° NNW 05:46:25 17° NNW 05:47:47 10° N
Cosmos 1459 Rocket 4.4 05:38:34 10° N 05:44:53 67° E 05:51:07 10° SSE
CZ-3A R/B 3.1 05:39:19 27° WSW 05:45:20 54° S 05:49:03 10° E
Cosmos 1898 Rocket 3.4 05:43:47 23° SSW 05:47:08 77° WNW 05:52:27 10° NNE
OTV 4 2.9 05:47:38 14° N 05:47:52 14° NNE 05:49:29 10° NE
ATLAS 5 CENTAUR R/B 3.0 05:41:59 10° NNW 05:48:10 62° ENE 05:54:40 10° SE
GPS 2-15 Rocket1 4.1 05:48:05 29° SSW 05:49:10 32° S 05:53:24 10° ESE
USA 215 3.8 05:44:38 10° S 05:50:31 36° SW 05:52:18 31° W
ISS -3.0 05:51:54 53° S 05:51:54 53° S 05:54:39 10° SSE
Cosmos 1980 3.6 05:45:54 10° NNW 05:51:33 71° WSW 05:57:11 10° S
Cosmos 2058 Rocket 3.5 05:47:59 10° N 05:52:18 61° E 05:56:36 10° SSE
Cosmos 1346 Rocket 3.7 05:56:50 30° NW 05:56:50 30° NW 05:59:29 10° NNW
SL-16 R/B 3.4 05:51:33 10° N 05:56:58 44° ENE 06:02:19 10° SE
Cosmos 858 Rocket 4.4 05:54:39 16° SSW 05:58:51 65° WNW 06:04:05 10° N
MOS 1 Rocket 3.6 05:55:15 10° NNE 06:00:08 79° E 06:05:20 10° S
Meteor 2-9 Rocket 4.2 05:54:53 10° N 06:00:35 89° W 06:06:24 10° S
COBE Rocket 3.9 05:57:09 10° NNE 06:01:54 79° E 06:06:32 10° S
ASTRO F (AKARI) 4.0 05:59:09 10° S 06:02:15 67° WSW 06:05:24 10° NNW
Cosmos 1937 Rocket 3.4 05:57:37 10° SSW 06:02:48 78° WNW 06:08:03 10° NNE
Cosmos 2227 Rocket 3.8 06:03:27 16° NW 06:03:27 16° NW 06:06:21 10° NNW
NOSS 0 Rocket 4.1 05:57:16 10° NW 06:03:11 47° WSW 06:09:05 10° S
ADEOS II 2.2 05:58:39 10° N 06:03:45 53° WNW 06:08:50 10° SSW
CZ-4C R/B 3.8 06:03:03 23° W 06:05:04 26° WSW 06:11:21 10° SSW
NOSS 2-2 (D) 3.3 06:04:05 17° SSW 06:07:10 88° WNW 06:11:26 10° NNE
Meteor PRIRODA 3.8 06:04:19 10° N 06:07:54 47° WNW 06:10:23 18° SW
Fermi 3.8 06:06:54 32° WSW 06:08:39 69° S 06:12:41 10° E
Lacrosse 5 4.0 06:08:53 11° NW 06:09:20 11° NW 06:10:39 10° NNW
USA 116 4.3 06:04:19 10° S 06:09:38 85° W 06:14:37 10° NNW
Meteor 2-15 4.3 06:04:14 10° S 06:10:16 74° W 06:16:19 10° N
NOAA 6 4.3 06:05:19 10° NNE 06:10:30 71° ESE 06:15:39 10° S
Cosmos 2297 Rocket 3.5 06:11:41 19° WNW 06:12:17 20° WNW 06:16:19 10° NNW
CZ-4B R/B 3.6 06:10:58 10° N 06:14:50 74° WNW 06:18:31 10° SSW
NOSS 3-2 (C) 4.0 06:08:25 10° NNW 06:16:13 72° WSW 06:24:22 10° SSE
Cosmos 2219 Rocket 3.1 06:13:12 10° NW 06:17:41 24° WSW 06:22:08 10° SSW
Delta 142 3.5 06:14:57 22° W 06:17:42 72° N 06:21:46 10° E
Cosmos 1626 Rocket 3.5 06:15:13 10° S 06:19:36 81° W 06:24:00 10° N
ADEOS Rocket 3.9 06:14:38 10° N 06:20:35 31° WNW 06:26:01 10° SW
NOSS 2-2 (C) 3.5 06:19:03 13° SW 06:22:31 54° WNW 06:26:44 10° NNE
NOSS 2-2 (E) 3.8 06:21:31 15° SW 06:24:40 44° WNW 06:28:52 10° NNE
Cosmos 2112 Rocket 4.4 06:20:23 10° NNW 06:25:14 38° W 06:30:02 10° SSW
Meteor 2-15 Rocket 4.4 06:23:21 10° SSW 06:29:20 59° W 06:35:18 10° N
Cosmos 1680 Rocket 4.3 06:25:41 10° NW 06:30:08 28° W 06:34:32 10° SSW
Cosmos 2061 Rocket 4.2 06:25:03 10° NNW 06:31:05 48° W 06:37:09 10° SSW
Cosmos 292 Rocket 3.9 06:27:57 10° NNW 06:32:41 53° WSW 06:37:23 10° S
CSL-04 Rocket 4.4 06:30:05 10° NNE 06:35:17 58° ESE 06:40:29 10° S
Cosmos 1802 Rocket 4.1 06:30:30 10° NNW 06:36:22 49° W 06:42:12 10° SSW
Cosmos 2100 Rocket 4.5 06:31:47 10° NNW 06:37:24 36° W 06:43:05 10° SSW
Cosmos 1602 Rocket 4.0 06:38:08 10° SSW 06:42:19 40° W 06:46:31 10° NNW
USA 129 2.6 06:41:57 10° SSW 06:43:47 25° W 06:45:32 10° NW
Meteor 1-31 Rocket 3.8 06:40:43 10° NNW 06:43:59 26° WNW 06:47:17 10° SW
OAO 2 Rocket 3.8 06:39:56 11° W 06:44:58 56° NNW 06:50:12 10° ENE
SKYMED 2 4.0 06:43:02 10° SSE 06:47:20 71° ENE 06:51:39 10° N
Iridium 4 Rocket 4.5 06:43:14 10° SSE 06:48:18 52° E 06:52:57 10° NNE
Cosmos 1725 Rocket 4.0 06:44:44 10° N 06:51:00 72° W 06:57:11 10° S
Cosmos 2263 Rocket 3.6 06:46:20 10° S 06:51:34 43° ESE 06:56:48 10° NE
Aureole 2 Rocket 2.1 06:49:34 10° NNW 06:52:48 59° WSW 06:55:45 10° S
Cosmos 2333 Rocket 3.7 06:51:37 10° WNW 06:54:23 14° W 06:57:08 10° SW
Genesis I 3.9 06:50:58 10° SW 06:54:39 36° WNW 06:58:21 10° N
Palapa 6 Rocket 4.3 06:52:30 10° WSW 06:55:59 23° SSW 06:59:07 10° SE
